Вернуться в каталог

NOAA 16 DEB

АктивенSSO
NORAD 41716·DEBRIS·🇺🇸 United States

Запущен Sep 21, 2000 с Vandenberg Space Force Base

Loading…

Ближайшие Пролёты (ближайшие 24 часа)

TLE

СвежийSource: Space-Track

Эпоха: Sep 14, 2026, 10:33 UTC

1 41716U 00055PW  26257.44002003  .00001878  00000-0  76175-3 0  9997
2 41716  98.6277 324.1718 0003270 246.4218 113.6621 14.28846664539090

Отслеживайте NOAA 16 DEB в реальном времени с AllMySat

Download on the App Store